Weather History for Cody, WY

Change the Weather History Date:

Friday, August 23, 2013

  Actual Average Record
Temperature  
Mean Temperature 76 °F -  
Max Temperature 89 °F 80 °F 97 °F (1936)
Min Temperature 64 °F 52 °F 36 °F (1933)
Cooling Degree Days 12    
Growing Degree Days 26 (Base 50)    
Moisture  
Dew Point 48 °F    
Average Humidity 41    
Maximum Humidity 64    
Minimum Humidity 16    
Precipitation  
Precipitation 0.00 in - - ()
Sea Level Pressure  
Sea Level Pressure 30.00 in    
Wind  
Wind Speed 11 mph (SW)    
Max Wind Speed 28 mph    
Max Gust Speed 39 mph    
Visibility 10 miles    
Events      
Averages and records for this station are not official NWS values.
T = Trace of Precipitation, MM = Missing Value Source: NWS Daily Summary

Daily Weather History Graph

Daily Weather History Graph

Search for Another Location

Airport:

Trip Planner

Search our weather history database for the weather conditions in past years. The results will help you decide how hot, cold, wet, or windy it might be!

Date:

Astronomy

Aug. 23, 2013 Rise Set
Actual Time 6:28 AM MDT 8:07 PM MDT
Civil Twilight 5:57 AM MDT 8:38 PM MDT
Nautical Twilight 5:20 AM MDT 9:15 PM MDT
Astronomical Twilight 4:39 AM MDT 9:55 PM MDT
Moon 9:17 PM MDT (8/23) 9:37 AM MDT (8/23)
Length of Visible Light 14h 40m
Length of Day
13h 39m
Waning Gibbous, 91% of the Moon is Illuminated
Aug 23
Waning Gibbous
Aug 28
Last Quarter
Sep 5
New
Sep 12
First Quarter
Sep 19
Full

Hourly Weather History & Observations

Time (MDT) Temp. Dew Point Humidity Pressure Visibility Wind Dir Wind Speed Gust Speed Precip Events Conditions
12:15 AM 66.2 °F 53.6 °F 64% 30.06 in 10.0 mi SW 13.8 mph - N/A   Clear
12:35 AM 66.2 °F 53.6 °F 64% 30.05 in 10.0 mi SSW 15.0 mph - N/A   Clear
12:55 AM 66.2 °F 53.6 °F 64% 30.05 in 10.0 mi SSW 8.1 mph - N/A   Clear
1:15 AM 66.2 °F 53.6 °F 64% 30.05 in 10.0 mi SSW 12.7 mph - N/A   Clear
1:35 AM 64.4 °F 51.8 °F 64% 30.05 in 10.0 mi SW 12.7 mph - N/A   Clear
1:55 AM 66.2 °F 53.6 °F 64% 30.04 in 10.0 mi WSW 8.1 mph - N/A   Clear
2:15 AM 66.2 °F 51.8 °F 60% 30.05 in 10.0 mi SW 9.2 mph - N/A   Clear
2:35 AM 66.2 °F 51.8 °F 60% 30.05 in 10.0 mi SW 9.2 mph - N/A   Clear
2:55 AM 68.0 °F 50.0 °F 52% 30.05 in 10.0 mi SW 17.3 mph 31.1 mph N/A   Clear
3:15 AM 71.6 °F 48.2 °F 43% 30.05 in 10.0 mi West 23.0 mph 34.5 mph N/A   Clear
3:35 AM 71.6 °F 48.2 °F 43% 30.07 in 10.0 mi WSW 12.7 mph 26.5 mph N/A   Scattered Clouds
3:55 AM 71.6 °F 46.4 °F 41% 30.07 in 10.0 mi SW 17.3 mph 39.1 mph N/A   Scattered Clouds
4:15 AM 69.8 °F 48.2 °F 46% 30.07 in 10.0 mi SW 18.4 mph 31.1 mph N/A   Partly Cloudy
4:35 AM 69.8 °F 46.4 °F 43% 30.05 in 10.0 mi SSW 16.1 mph 27.6 mph N/A   Mostly Cloudy
4:55 AM 71.6 °F 46.4 °F 41% 30.04 in 10.0 mi West 12.7 mph 23.0 mph N/A   Overcast
5:15 AM 69.8 °F 46.4 °F 43% 30.03 in 10.0 mi SW 15.0 mph 18.4 mph N/A   Scattered Clouds
5:35 AM 66.2 °F 48.2 °F 52% 30.04 in 10.0 mi SW 23.0 mph - N/A   Clear
5:55 AM 64.4 °F 51.8 °F 64% 30.04 in 10.0 mi WSW 12.7 mph 25.3 mph N/A   Clear
6:15 AM 64.4 °F 48.2 °F 56% 30.03 in 10.0 mi SW 17.3 mph 24.2 mph N/A   Clear
6:35 AM 66.2 °F 48.2 °F 52% 30.04 in 10.0 mi SW 15.0 mph 23.0 mph N/A   Clear
6:55 AM 66.2 °F 48.2 °F 52% 30.03 in 10.0 mi SW 15.0 mph 23.0 mph N/A   Clear
7:15 AM 66.2 °F 48.2 °F 52% 30.03 in 10.0 mi WSW 10.4 mph 17.3 mph N/A   Clear
7:35 AM 69.8 °F 48.2 °F 46% 30.03 in 10.0 mi West 4.6 mph - N/A   Clear
7:55 AM 69.8 °F 48.2 °F 46% 30.03 in 10.0 mi SW 3.5 mph - N/A   Clear
8:15 AM 73.4 °F 50.0 °F 44% 30.03 in 10.0 mi Calm Calm - N/A   Clear
8:35 AM 73.4 °F 50.0 °F 44% 30.04 in 10.0 mi East 8.1 mph - N/A   Clear
8:55 AM 73.4 °F 48.2 °F 41% 30.04 in 10.0 mi West 3.5 mph - N/A   Clear
9:15 AM 75.2 °F 50.0 °F 41% 30.03 in 10.0 mi West 8.1 mph - N/A   Clear
9:35 AM 78.8 °F 51.8 °F 39% 30.03 in 10.0 mi WSW 10.4 mph - N/A   Clear
9:55 AM 77.0 °F 50.0 °F 39% 30.02 in 10.0 mi WSW 6.9 mph 16.1 mph N/A   Clear
10:15 AM 80.6 °F 50.0 °F 34% 30.02 in 10.0 mi WSW 9.2 mph - N/A   Clear
10:35 AM 80.6 °F 48.2 °F 32% 30.02 in 10.0 mi WSW 12.7 mph - N/A   Clear
10:55 AM 82.4 °F 48.2 °F 30% 30.01 in 10.0 mi WSW 6.9 mph 18.4 mph N/A   Clear
11:15 AM 82.4 °F 48.2 °F 30% 30.01 in 10.0 mi SW 8.1 mph - N/A   Clear
11:35 AM 82.4 °F 48.2 °F 30% 30.00 in 10.0 mi WSW 8.1 mph 18.4 mph N/A   Clear
11:55 AM 84.2 °F 46.4 °F 27% 30.00 in 10.0 mi WSW 8.1 mph - N/A   Clear
12:15 PM 84.2 °F 44.6 °F 25% 29.99 in 10.0 mi West 8.1 mph 17.3 mph N/A   Clear
12:35 PM 84.2 °F 44.6 °F 25% 29.99 in 10.0 mi WNW 4.6 mph - N/A   Clear
12:55 PM 86.0 °F 42.8 °F 22% 29.98 in 10.0 mi Calm Calm - N/A   Clear
1:15 PM 89.6 °F 39.2 °F 17% 29.96 in 1.5 mi SSE 9.2 mph - N/A   Clear
1:35 PM 87.8 °F 39.2 °F 18% 29.96 in 3.0 mi SE 9.2 mph - N/A   Clear
2:15 PM 89.6 °F 37.4 °F 16% 29.94 in 5.0 mi South 12.7 mph 19.6 mph N/A   Clear
2:35 PM 87.8 °F 42.8 °F 21% 29.94 in 10.0 mi SE 13.8 mph 20.7 mph N/A   Mostly Cloudy
2:55 PM 86.0 °F 42.8 °F 22% 29.94 in 10.0 mi South 15.0 mph 21.9 mph N/A   Mostly Cloudy
3:15 PM 84.2 °F 46.4 °F 27% 29.94 in 10.0 mi South 27.6 mph 33.4 mph N/A   Mostly Cloudy
3:35 PM 82.4 °F 44.6 °F 26% 29.95 in 10.0 mi South 21.9 mph 31.1 mph N/A   Mostly Cloudy
3:55 PM 80.6 °F 44.6 °F 28% 29.96 in 10.0 mi South 18.4 mph 25.3 mph N/A   Overcast
4:15 PM 80.6 °F 44.6 °F 28% 29.95 in 10.0 mi SSE 19.6 mph - N/A   Overcast
4:35 PM 78.8 °F 46.4 °F 32% 29.96 in 10.0 mi SE 17.3 mph - N/A   Mostly Cloudy
4:55 PM 78.8 °F 48.2 °F 34% 29.96 in 10.0 mi SE 11.5 mph - N/A   Overcast
5:15 PM 78.8 °F 48.2 °F 34% 29.97 in 10.0 mi SSE 6.9 mph - N/A   Overcast
5:35 PM 78.8 °F 48.2 °F 34% 29.97 in 10.0 mi ESE 4.6 mph - N/A   Overcast
5:55 PM 78.8 °F 48.2 °F 34% 29.96 in 10.0 mi SE 6.9 mph - N/A   Scattered Clouds
6:15 PM 78.8 °F 48.2 °F 34% 29.94 in 10.0 mi ESE 9.2 mph - N/A   Clear
6:35 PM 78.8 °F 48.2 °F 34% 29.93 in 10.0 mi ESE 5.8 mph - N/A   Partly Cloudy
6:55 PM 77.0 °F 48.2 °F 36% 29.93 in 10.0 mi Calm Calm - N/A   Clear
7:35 PM 75.2 °F 50.0 °F 41% 29.93 in 10.0 mi Calm Calm - N/A   Clear
7:55 PM 75.2 °F 50.0 °F 41% 29.94 in 10.0 mi Calm Calm - N/A   Clear
8:15 PM 75.2 °F 48.2 °F 38% 29.94 in 10.0 mi SW 4.6 mph - N/A   Clear
8:35 PM 75.2 °F 46.4 °F 36% 29.95 in 10.0 mi SSW 16.1 mph 21.9 mph N/A   Scattered Clouds
8:55 PM 73.4 °F 46.4 °F 38% 29.98 in 10.0 mi SW 13.8 mph 26.5 mph N/A   Overcast
9:15 PM 71.6 °F 46.4 °F 41% 29.99 in 10.0 mi WSW 12.7 mph 20.7 mph N/A   Overcast
9:35 PM 71.6 °F 48.2 °F 43% 30.00 in 10.0 mi NNE 11.5 mph 18.4 mph N/A   Overcast
9:55 PM 68.0 °F 50.0 °F 52% 30.00 in 10.0 mi NNE 5.8 mph - N/A   Overcast
10:15 PM 68.0 °F 50.0 °F 52% 30.00 in 10.0 mi Calm Calm - N/A   Overcast
10:35 PM 69.8 °F 48.2 °F 46% 30.00 in 10.0 mi Calm Calm - N/A   Overcast
10:55 PM 69.8 °F 48.2 °F 46% 30.00 in 10.0 mi WNW 3.5 mph - N/A   Overcast
11:15 PM 69.8 °F 48.2 °F 46% 30.00 in 10.0 mi NNE 4.6 mph - N/A   Overcast
11:35 PM 69.8 °F 48.2 °F 46% 30.00 in 10.0 mi Calm Calm - N/A   Overcast
11:55 PM 69.8 °F 48.2 °F 46% 29.99 in 10.0 mi West 4.6 mph - N/A   Overcast